sat.trackr.live / text

‹ back to catalog

STARLINK-33805

NORAD 63590 · 2025-076X

PAYLOAD ACTIVE UNKNOWN

§ Identity

Operator
Country
US
Launch date
2025-04-14
Launch site
AFETR
Launch vehicle
Mass (kg)
RCS (m²)

Purposes: comms

External: N2YO · Heavens-Above · Gunter

§ Orbital elements

Epoch: 2026-05-24T23:30:18.817344Z

Period
94.26 min
Inclination
42.9963°
Eccentricity
0.0002201
Mean motion
15.27609858 rev/d
Perigee alt
481.4 km
Apogee alt
484.5 km
Semi-major
6,861.1 km
B*
4.3970e-4
RAAN
251.2046°
Arg perigee
265.0372°
Mean anomaly
95.0228°
Rev number
6,349

§ Raw data

STARLINK-338051 63590U 25076X   26144.97938446  .00011868  00000+0  43970-3 0  99992 63590  42.9963 251.2046 0002201 265.0372  95.0228 15.27609858 63497

JSON: /api/v1/satellites/63590 · /tle

For live sub-satellite position, see the globe view (requires WebGL).

§ Visibility from observer

Set your observer location to see the next 7 days of passes ≥ 10°. The values pass through the URL so the page stays shareable.

No JS? Fill the form by hand. The geolocation button needs JavaScript.